sat.trackr.live / text

‹ back to catalog

STARLINK-34284

NORAD 64212 · 2025-117K

PAYLOAD ACTIVE UNKNOWN

§ Identity

Operator
Country
US
Launch date
2025-05-31
Launch site
AFWTR
Launch vehicle
Mass (kg)
RCS (m²)

Purposes: comms

External: N2YO · Heavens-Above · Gunter

§ Orbital elements

Epoch: 2026-09-20T06:07:58.340640Z

Period
93.85 min
Inclination
53.1599°
Eccentricity
0.0001142
Mean motion
15.34409656 rev/d
Perigee alt
461.9 km
Apogee alt
463.5 km
Semi-major
6,840.8 km
B*
5.7828e-4
RAAN
214.5109°
Arg perigee
109.1251°
Mean anomaly
250.9875°
Rev number
7,433

§ Raw data

STARLINK-342841 64212U 25117K   26263.25553635  .00019218  00000+0  57828-3 0  99972 64212  53.1599 214.5109 0001142 109.1251 250.9875 15.34409656 74334

JSON: /api/v1/satellites/64212 · /tle

For live sub-satellite position, see the globe view (requires WebGL).

§ Visibility from observer

Set your observer location to see the next 7 days of passes ≥ 10°. The values pass through the URL so the page stays shareable.

No JS? Fill the form by hand. The geolocation button needs JavaScript.